{"data":{"norad_id":62890,"intl_designator":"2025-024M","name":"STARLINK-11431 [DTC]","alt_names":[],"object_type":"PAYLOAD","status":"ACTIVE","operator":null,"country":"US","launch_date":"2025-02-04","launch_site_code":"AFETR","launch_vehicle":null,"mission":null,"orbit_class":"UNKNOWN","rcs_meters":null,"size_class":null,"mass_kg":null,"dimensions":null,"purposes":["comms"],"wikipedia_slug":null,"has_3d_model":false,"image_url":null,"decayed_at":null,"tle_current":{"epoch":"2026-05-25T04:37:52.690080Z","epoch_age_seconds":54848,"freshness":"FRESH","line1":"1 62890U 25024M   26145.19297095  .00214416  00000+0  16275-2 0  9998","line2":"2 62890  42.9999  80.7567 0001782 255.5020 104.5650 15.70902105 75495","mean_motion":15.70902105,"eccentricity":0.0001782,"inclination_deg":42.9999,"raan_deg":80.7567,"arg_perigee_deg":255.502,"mean_anomaly_deg":104.565,"bstar":0.0016275,"rev_number":7549,"period_min":91.667074314602,"perigee_km":355.11747990098,"apogee_km":357.51763950606,"semimajor_km":6734.4545597035,"source":"CELESTRAK","updated_at":"2026-05-25T13:38:19.790580Z"}}}